[[{"header":{"parameterUnit":"m.s-1","parameterCategory":2,"la1":30.2992,"la2":30.254,"lo1":-89.0895,"lo2":-89.0443,"dy":0.0025,"dx":0.0025,"nx":19,"ny":19,"refTime":"2026-05-16T03:00:00:Z","depth":"0","parameterNumber":2,"parameterNumberName":"U-component_of_CURRENTS"},"data":[0,0,0,-0.0361,-0.0363,-0.0437,-0.0437,-0.0421,-0.042,0,0,0,0,0,0,0,0,0,0,0,-0.0321,-0.0322,-0.0361,-0.0363,-0.0437,-0.0437,-0.0421,-0.042,0,0,0,0,0,0,0,0,0,0,0,-0.0321,-0.0322,-0.0322,-0.0364,-0.0437,-0.0437,-0.0421,-0.0389,0,0,0,0,0,0,0,0,0,0,-0.033,-0.0315,-0.0321,-0.0322,-0.0364,-0.0437,-0.0437,-0.0388,-0.0391,-0.036,0,-0.0376,0,-0.0409,-0.0418,-0.0418,0,0,0,-0.0348,-0.0313,-0.0338,-0.0322,-0.0365,-0.0437,-0.0399,-0.0391,-0.0393,-0.0363,-0.0377,-0.0377,-0.0408,-0.0418,-0.0418,-0.0556,-0.0558,0,0,-0.0344,-0.0327,-0.0336,-0.034,-0.0388,-0.0397,-0.0402,-0.0393,-0.0392,-0.0377,-0.0378,-0.0408,-0.0418,-0.0417,-0.0555,-0.0557,0,0,0,-0.0343,-0.0324,-0.035,-0.0339,-0.0367,-0.04,-0.0405,-0.0392,-0.0403,-0.0378,-0.0408,-0.0417,-0.0417,-0.0553,-0.0555,-0.062,0,0,0,-0.034,-0.0324,-0.0348,-0.0338,-0.0368,-0.0397,-0.0403,-0.0403,-0.0404,-0.0408,-0.0417,-0.0417,-0.0551,-0.0554,-0.0614,-0.0628,0,0,0,-0.0317,-0.0322,-0.0333,-0.0337,-0.0378,-0.0399,-0.0409,-0.0404,-0.0422,-0.0418,-0.0417,-0.0549,-0.0553,-0.0609,-0.0621,-0.0689,0,0,0,-0.0292,-0.033,-0.0332,-0.0386,-0.0378,-0.0465,-0.0409,-0.0451,-0.0455,-0.0417,-0.0551,-0.0555,-0.0607,-0.0616,-0.0684,-0.0463,-0.0469,0,0,-0.0332,-0.0334,-0.0369,-0.0375,-0.0463,-0.0453,-0.0563,-0.0532,-0.0514,-0.0537,-0.0542,-0.0616,-0.062,-0.0688,-0.0707,-0.0704,0,0,0,-0.0377,-0.0398,-0.0426,-0.0476,-0.053,-0.0598,-0.0599,-0.0627,-0.0671,-0.0541,-0.0684,-0.0686,-0.0725,-0.0584,-0.0585,-0.04,-0.0575,-0.0574,-0.0574,-0.0401,-0.0439,-0.0498,-0.0556,-0.0615,-0.0703,-0.077,-0.0817,-0.0759,-0.0822,-0.0789,-0.0954,-0.0808,-0.0805,-0.0621,-0.0856,-0.0856,-0.0857,-0.0857,-0.045,-0.0478,-0.0536,-0.0596,-0.0681,-0.0759,-0.0904,-0.0918,-0.102,-0.0952,-0.0987,-0.0723,-0.0807,-0.0611,-0.0862,-0.0861,-0.0861,-0.086,-0.086,-0.0444,-0.0461,-0.0493,-0.0569,-0.0659,-0.0761,-0.0859,-0.0975,-0.1061,-0.1119,-0.0937,-0.0932,-0.0711,-0.1114,-0.1114,-0.1115,-0.1115,-0.1115,-0.1116,-0.0408,-0.0449,-0.0454,-0.0535,-0.0551,-0.063,-0.0816,-0.0906,-0.099,-0.1,-0.0998,-0.0747,-0.1032,-0.0966,-0.1122,-0.1121,-0.112,-0.112,-0.1119,-0.0387,-0.0377,-0.0387,-0.0391,-0.0429,-0.0412,-0.0593,-0.0695,-0.0848,-0.0858,-0.0645,-0.095,-0.0903,-0.0899,-0.0832,-0.0945,-0.0945,-0.0945,-0.0944,-0.033,-0.0346,-0.0309,-0.0291,-0.0286,-0.0314,-0.0217,-0.026,-0.0366,-0.0324,-0.0477,-0.0333,-0.0348,-0.0262,-0.0274,-0.0192,-0.014,-0.0139,-0.0138,-0.0285,-0.0288,-0.0238,-0.0233,-0.0205,-0.0152,0.0048,0.0226,0.0104,-0.0098,-0.0277,-0.0311,-0.0095,-0.0134,0.0007,-0.0023,0.0112,0,0]},{"header":{"parameterUnit":"m.s-1","parameterCategory":2,"la1":30.2992,"la2":30.254,"lo1":-89.0895,"lo2":-89.0443,"dy":0.0025,"dx":0.0025,"nx":19,"ny":19,"refTime":"2026-05-16T03:00:00:Z","depth":"0","parameterNumber":3,"parameterNumberName":"V-component_of_CURRENTS"},"data":[0,0,0,0.038,0.0382,0.048,0.048,0.0578,0.0578,0,0,0,0,0,0,0,0,0,0,0,0.0332,0.0332,0.038,0.0382,0.048,0.048,0.0577,0.0578,0,0,0,0,0,0,0,0,0,0,0,0.0332,0.0332,0.0332,0.0382,0.048,0.048,0.0577,0.0512,0,0,0,0,0,0,0,0,0,0,0.0422,0.0386,0.0332,0.0332,0.0383,0.0479,0.048,0.051,0.0516,0.0523,0,0.0523,0,0.0556,0.0583,0.0584,0,0,0,0.039,0.038,0.04,0.0332,0.0384,0.0479,0.0438,0.0514,0.0521,0.0532,0.0525,0.053,0.0557,0.0584,0.0584,0.0618,0.0618,0,0,0.0385,0.0361,0.0394,0.0404,0.039,0.0435,0.0441,0.0519,0.0522,0.0526,0.0532,0.0559,0.0584,0.0585,0.0618,0.0618,0,0,0,0.0364,0.0357,0.0376,0.0399,0.042,0.0437,0.0444,0.0518,0.0522,0.0534,0.056,0.0585,0.0586,0.0619,0.0618,0.0493,0,0,0,0.0361,0.0345,0.0373,0.0362,0.0418,0.0477,0.0442,0.0516,0.0527,0.0559,0.0585,0.0587,0.0619,0.0618,0.0496,0.0419,0,0,0,0.0331,0.0343,0.0346,0.036,0.04,0.0477,0.0486,0.0519,0.0542,0.0584,0.0587,0.0619,0.0619,0.05,0.0426,0.0337,0,0,0,0.0316,0.029,0.0345,0.0331,0.0399,0.0423,0.0486,0.0522,0.0551,0.0585,0.0619,0.0618,0.0501,0.0431,0.0342,0.0511,0.0501,0,0,0.0269,0.0284,0.0276,0.0327,0.0319,0.0411,0.0405,0.0477,0.0547,0.0593,0.0595,0.0495,0.0427,0.0338,0.0482,0.0473,0,0,0,0.0252,0.0239,0.0249,0.0263,0.0306,0.0319,0.0411,0.0447,0.0495,0.0563,0.0521,0.0482,0.0429,0.0543,0.0536,0.0739,0.0616,0.0616,0.0616,0.017,0.0189,0.0161,0.0184,0.0199,0.0264,0.0273,0.0339,0.0432,0.0439,0.0399,0.0271,0.0394,0.039,0.0597,0.0435,0.0434,0.0434,0.0434,0.0089,0.0074,0.0082,0.0062,0.0082,0.009,0.0143,0.0198,0.0204,0.0314,0.027,0.0431,0.0374,0.0599,0.0426,0.0427,0.0428,0.0429,0.043,0.0039,0.003,0.0019,-0.0017,-0.0053,-0.0014,-0.0074,-0.0012,0.0073,0.003,0.0178,0.0184,0.0361,0.0017,0.0016,0.0015,0.0015,0.0014,0.0014,0.0006,-0.0014,-0.0047,-0.0092,-0.0121,-0.0168,-0.0194,-0.0207,-0.01,0.0042,0.0045,0.0369,0.0143,0.0137,0.0002,0.0004,0.0006,0.0007,0.0008,-0.0036,-0.0027,-0.0091,-0.0126,-0.0211,-0.0266,-0.0327,-0.0283,-0.0273,-0.0195,0.034,0.0061,0.0111,0.0123,0.0118,-0.0015,-0.0015,-0.0015,-0.0015,-0.0043,-0.005,-0.0111,-0.0177,-0.0265,-0.031,-0.0339,-0.0237,0.012,0.0424,0.044,0.0625,0.0616,0.0705,0.0703,0.0715,0.0736,0.0737,0.0738,-0.0054,-0.0076,-0.0119,-0.018,-0.0275,-0.033,-0.0283,-0.0072,0.0537,0.0781,0.0676,0.0644,0.0929,0.09,0.1056,0.1038,0.1063,0,0]}],[{"header":{"parameterUnit":"m.s-1","parameterCategory":2,"la1":30.2992,"la2":30.254,"lo1":-89.0895,"lo2":-89.0443,"dy":0.0025,"dx":0.0025,"nx":19,"ny":19,"refTime":"2026-05-16T03:00:00:Z","depth":"2","parameterNumber":2,"parameterNumberName":"U-component_of_CURRENTS"},"data":[0,0,0,-0.1161,-0.1161,-0.1156,-0.1156,-0.1138,-0.1138,0,0,0,0,0,0,0,0,0,0,0,-0.115,-0.115,-0.1161,-0.1161,-0.1156,-0.1156,-0.1138,-0.1138,0,0,0,0,0,0,0,0,0,0,0,-0.115,-0.115,-0.115,-0.1161,-0.1156,-0.1156,-0.1138,-0.1142,0,0,0,0,0,0,0,0,0,0,-0.1147,-0.1129,-0.115,-0.115,-0.1162,-0.1156,-0.1156,-0.1142,-0.1142,-0.1141,0,-0.1139,0,-0.1149,-0.1138,-0.1138,0,0,0,-0.1149,-0.113,-0.1147,-0.115,-0.1162,-0.1156,-0.1155,-0.1142,-0.1141,-0.1141,-0.1139,-0.1139,-0.1149,-0.1138,-0.1137,-0.1197,-0.1198,0,0,-0.115,-0.1132,-0.1147,-0.1146,-0.1159,-0.1155,-0.1155,-0.1141,-0.1129,-0.1139,-0.1139,-0.1148,-0.1137,-0.1137,-0.1197,-0.1197,0,0,0,-0.1159,-0.1131,-0.1148,-0.1147,-0.1153,-0.1155,-0.1155,-0.1129,-0.114,-0.1139,-0.1148,-0.1137,-0.1137,-0.1196,-0.1197,-0.1277,0,0,0,-0.1158,-0.1139,-0.1148,-0.1135,-0.1153,-0.114,-0.1143,-0.114,-0.114,-0.1148,-0.1137,-0.1137,-0.1195,-0.1196,-0.1273,-0.1263,0,0,0,-0.1151,-0.1137,-0.1141,-0.1135,-0.1142,-0.1141,-0.1149,-0.114,-0.1146,-0.1138,-0.1137,-0.1195,-0.1196,-0.127,-0.1259,-0.1244,0,0,0,-0.1128,-0.1185,-0.1139,-0.1219,-0.1142,-0.124,-0.1149,-0.1193,-0.1198,-0.1137,-0.1195,-0.1197,-0.1269,-0.1256,-0.1242,-0.109,-0.1087,0,0,-0.1209,-0.1193,-0.1254,-0.1216,-0.1333,-0.1239,-0.1326,-0.1275,-0.1216,-0.1195,-0.1196,-0.1274,-0.1259,-0.1244,-0.1186,-0.1179,0,0,0,-0.129,-0.1318,-0.1355,-0.1395,-0.1435,-0.139,-0.1377,-0.1351,-0.1308,-0.1227,-0.1285,-0.1272,-0.126,-0.1166,-0.1161,-0.1205,-0.1204,-0.1204,-0.1204,-0.1317,-0.1378,-0.145,-0.1505,-0.1533,-0.1515,-0.1479,-0.1418,-0.1415,-0.1403,-0.1348,-0.14,-0.1305,-0.1298,-0.1383,-0.1383,-0.1383,-0.1384,-0.1384,-0.1412,-0.1419,-0.1465,-0.1555,-0.1519,-0.1559,-0.1524,-0.15,-0.1469,-0.1449,-0.1434,-0.1268,-0.1297,-0.139,-0.1389,-0.1388,-0.1387,-0.1387,-0.1387,-0.1381,-0.1375,-0.1446,-0.1509,-0.1512,-0.1531,-0.1497,-0.1503,-0.1486,-0.1475,-0.1337,-0.1333,-0.14,-0.1479,-0.1479,-0.1479,-0.1479,-0.1479,-0.1479,-0.1259,-0.133,-0.1374,-0.1453,-0.1472,-0.1492,-0.1496,-0.1481,-0.1419,-0.1373,-0.1371,-0.143,-0.1427,-0.1404,-0.1478,-0.1478,-0.1478,-0.1479,-0.1479,-0.1156,-0.1205,-0.1284,-0.1327,-0.1398,-0.1372,-0.1428,-0.1326,-0.1311,-0.1242,-0.1293,-0.1298,-0.1235,-0.1236,-0.1207,-0.1226,-0.1226,-0.1226,-0.1226,-0.1036,-0.1086,-0.116,-0.1224,-0.1259,-0.1297,-0.1162,-0.1098,-0.1086,-0.1097,-0.1103,-0.1078,-0.1089,-0.1017,-0.1024,-0.099,-0.0953,-0.0953,-0.0953,-0.0928,-0.1004,-0.1005,-0.1133,-0.1183,-0.1174,-0.098,-0.0763,-0.0794,-0.095,-0.1139,-0.1192,-0.117,-0.1182,-0.1081,-0.1088,-0.1038,0,0]},{"header":{"parameterUnit":"m.s-1","parameterCategory":2,"la1":30.2992,"la2":30.254,"lo1":-89.0895,"lo2":-89.0443,"dy":0.0025,"dx":0.0025,"nx":19,"ny":19,"refTime":"2026-05-16T03:00:00:Z","depth":"2","parameterNumber":3,"parameterNumberName":"V-component_of_CURRENTS"},"data":[0,0,0,-0.0275,-0.0273,-0.0187,-0.0186,-0.0062,-0.0061,0,0,0,0,0,0,0,0,0,0,0,-0.0309,-0.0309,-0.0275,-0.0273,-0.0187,-0.0186,-0.0062,-0.0061,0,0,0,0,0,0,0,0,0,0,0,-0.0309,-0.0309,-0.0308,-0.0273,-0.0187,-0.0186,-0.0062,-0.0127,0,0,0,0,0,0,0,0,0,0,-0.0211,-0.0252,-0.0309,-0.0308,-0.0273,-0.0187,-0.0186,-0.013,-0.0123,-0.0102,0,-0.0103,0,-0.0084,-0.0054,-0.0053,0,0,0,-0.0256,-0.0259,-0.0236,-0.0308,-0.0272,-0.0187,-0.0221,-0.0126,-0.0118,-0.0093,-0.0101,-0.0096,-0.0082,-0.0053,-0.0052,0.0105,0.0106,0,0,-0.0261,-0.0286,-0.0242,-0.0231,-0.0267,-0.0224,-0.0219,-0.0121,-0.012,-0.01,-0.0093,-0.008,-0.0052,-0.0051,0.0104,0.0105,0,0,0,-0.0286,-0.029,-0.0269,-0.0237,-0.0225,-0.0222,-0.0216,-0.0124,-0.0118,-0.0092,-0.0079,-0.0052,-0.005,0.0103,0.0104,0.0075,0,0,0,-0.0288,-0.0306,-0.0272,-0.0285,-0.0227,-0.0176,-0.0221,-0.0124,-0.0113,-0.0079,-0.0052,-0.0049,0.0102,0.0104,0.0074,-0.0018,0,0,0,-0.0309,-0.0307,-0.0303,-0.0287,-0.0256,-0.0177,-0.0164,-0.0121,-0.0105,-0.0053,-0.0049,0.0101,0.0103,0.0073,-0.0017,-0.0024,0,0,0,-0.0329,-0.0339,-0.0304,-0.0289,-0.0258,-0.0163,-0.0165,-0.0105,-0.006,-0.0051,0.0102,0.0104,0.0072,-0.0016,-0.0023,0.002,0.002,0,0,-0.0353,-0.0342,-0.0326,-0.0293,-0.0224,-0.0173,-0.0082,-0.0046,-0.0015,0.0071,0.0075,0.0074,-0.0017,-0.0024,0.0148,0.0143,0,0,0,-0.0338,-0.0338,-0.0303,-0.0257,-0.0173,-0.0117,-0.0035,0.0004,0.0068,0.0018,0.0128,0.0071,0.0067,0.0098,0.0096,0.0115,0.0114,0.0114,0.0114,-0.0409,-0.035,-0.032,-0.0238,-0.0175,-0.0062,-0.0025,0.0044,0.0114,0.0143,0.009,0.0112,0.0151,0.0148,0.0183,0.0183,0.0183,0.0183,0.0183,-0.0451,-0.044,-0.0359,-0.0325,-0.0232,-0.0157,-0.0029,0.0014,0.0082,0.0133,0.0134,0.0118,0.0143,0.0181,0.0182,0.0182,0.0182,0.0182,0.0182,-0.0518,-0.0509,-0.0487,-0.0438,-0.0387,-0.026,-0.0255,-0.0133,-0.0011,-0.0009,0.0064,0.0065,0.0028,0.003,0.0029,0.0029,0.0028,0.0028,0.0028,-0.0608,-0.0579,-0.0606,-0.0555,-0.0541,-0.0502,-0.0388,-0.0343,-0.0158,-0.0013,-0.0011,0.0059,0.0064,0.002,0.0022,0.0023,0.0024,0.0024,0.0025,-0.0664,-0.0698,-0.0732,-0.0742,-0.0711,-0.0697,-0.0606,-0.0444,-0.0348,-0.0248,0.0008,0.001,0.0006,0.0011,-0.0032,-0.0045,-0.0045,-0.0045,-0.0045,-0.0732,-0.074,-0.0822,-0.0856,-0.0861,-0.0787,-0.0735,-0.0499,-0.0218,0.0023,0.002,0.0094,0.0096,0.01,0.0103,0.0063,0.0075,0.0075,0.0075,-0.0754,-0.0794,-0.0855,-0.0907,-0.0913,-0.0871,-0.0753,-0.0331,0.0172,0.0079,0.0033,-0.0036,0.007,0.0074,0.008,0.0084,0.002,0,0]}],[{"header":{"parameterUnit":"m.s-1","parameterCategory":2,"la1":30.2992,"la2":30.254,"lo1":-89.0895,"lo2":-89.0443,"dy":0.0025,"dx":0.0025,"nx":19,"ny":19,"refTime":"2026-05-16T03:00:00:Z","depth":"4","parameterNumber":2,"parameterNumberName":"U-component_of_CURRENTS"},"data":[0,0,0,-0.081,-0.0811,-0.0879,-0.0879,-0.1005,-0.1007,0,0,0,0,0,0,0,0,0,0,0,-0.0793,-0.0793,-0.081,-0.0811,-0.0879,-0.0879,-0.1005,-0.1007,0,0,0,0,0,0,0,0,0,0,0,-0.0793,-0.0793,-0.0794,-0.0812,-0.0879,-0.0879,-0.1005,-0.0946,0,0,0,0,0,0,0,0,0,0,-0.0876,-0.085,-0.0793,-0.0794,-0.0812,-0.0879,-0.0879,-0.0943,-0.095,-0.0984,0,-0.0996,0,-0.1,-0.1015,-0.1016,0,0,0,-0.0818,-0.0844,-0.0862,-0.0794,-0.0813,-0.0878,-0.085,-0.0946,-0.0954,-0.0994,-0.0997,-0.1002,-0.1002,-0.1016,-0.1017,-0.1126,-0.1126,0,0,-0.0815,-0.0807,-0.0857,-0.0867,-0.0833,-0.0848,-0.0852,-0.0951,-0.0961,-0.0998,-0.1004,-0.1004,-0.1017,-0.1018,-0.1126,-0.1126,0,0,0,-0.0799,-0.0805,-0.082,-0.0863,-0.087,-0.085,-0.0855,-0.0957,-0.0962,-0.1006,-0.1006,-0.1018,-0.1019,-0.1125,-0.1126,-0.1132,0,0,0,-0.0797,-0.0795,-0.0818,-0.0815,-0.0867,-0.0908,-0.0859,-0.0955,-0.0966,-0.1005,-0.1018,-0.1021,-0.1125,-0.1126,-0.1131,-0.1146,0,0,0,-0.0789,-0.0794,-0.0802,-0.0814,-0.0839,-0.0906,-0.0917,-0.0958,-0.0966,-0.1016,-0.1021,-0.1125,-0.1126,-0.1131,-0.1145,-0.116,0,0,0,-0.0779,-0.0799,-0.0803,-0.0834,-0.0839,-0.0897,-0.0916,-0.097,-0.1013,-0.1018,-0.1125,-0.1126,-0.1131,-0.1144,-0.1159,-0.1007,0,0,0,-0.0797,-0.0801,-0.0821,-0.0826,-0.0874,-0.0888,-0.0947,-0.1009,-0.1031,-0.1097,-0.1099,-0.1132,-0.1145,-0.116,-0.1039,0,0,0,0,-0.0823,-0.0833,-0.0852,-0.088,-0.092,-0.0964,-0.1007,-0.1025,-0.1081,-0.1057,-0.114,-0.1149,-0.1158,-0.1067,-0.1128,-0.1128,-0.1128,-0.1128,-0.1128,-0.0812,-0.0842,-0.0881,-0.0923,-0.0966,-0.1021,-0.1056,-0.109,-0.1107,-0.1125,-0.116,-0.1186,-0.1089,-0.116,-0.116,-0.116,-0.1161,-0.1161,-0.1161,-0.0819,-0.0834,-0.0895,-0.0945,-0.1003,-0.1058,-0.1119,-0.1129,-0.1176,-0.1172,-0.118,-0.1087,-0.1161,-0.1161,-0.1161,-0.1161,-0.1161,-0.1161,-0.1161,-0.0782,-0.0798,-0.0844,-0.092,-0.1003,-0.1079,-0.1127,-0.1175,-0.1195,-0.1211,-0.112,-0.1199,-0.1192,-0.1218,-0.1218,-0.1218,-0.1218,-0.1219,-0.1219,-0.0716,-0.0765,-0.08,-0.0895,-0.0954,-0.1036,-0.1135,-0.1152,-0.1197,-0.1125,-0.1223,-0.1206,-0.1204,-0.1196,-0.1221,-0.122,-0.122,-0.122,-0.122,-0.0655,-0.0681,-0.072,-0.0773,-0.0898,-0.0951,-0.1067,-0.1075,-0.1083,-0.1053,-0.1072,-0.1079,-0.1067,-0.1069,-0.1056,-0.1039,-0.1037,-0.1036,0,-0.0602,-0.062,-0.0654,-0.0708,-0.0777,-0.0893,-0.0874,-0.0922,-0.0963,-0.0927,-0.1085,-0.1107,-0.111,-0.1097,-0.1096,-0.108,0,0,0,-0.0561,-0.0576,-0.0577,-0.0641,-0.0719,-0.0778,-0.0865,-0.0837,-0.0962,-0.0922,-0.0989,-0.1001,-0.1134,-0.1227,-0.1225,-0.1222,-0.121,0,0]},{"header":{"parameterUnit":"m.s-1","parameterCategory":2,"la1":30.2992,"la2":30.254,"lo1":-89.0895,"lo2":-89.0443,"dy":0.0025,"dx":0.0025,"nx":19,"ny":19,"refTime":"2026-05-16T03:00:00:Z","depth":"4","parameterNumber":3,"parameterNumberName":"V-component_of_CURRENTS"},"data":[0,0,0,-0.0088,-0.0088,-0.0076,-0.0076,-0.0071,-0.0071,0,0,0,0,0,0,0,0,0,0,0,-0.009,-0.009,-0.0088,-0.0088,-0.0076,-0.0076,-0.0071,-0.0071,0,0,0,0,0,0,0,0,0,0,0,-0.009,-0.009,-0.009,-0.0088,-0.0076,-0.0076,-0.0071,-0.0076,0,0,0,0,0,0,0,0,0,0,-0.0086,-0.0091,-0.009,-0.009,-0.0088,-0.0076,-0.0076,-0.0076,-0.0076,-0.0082,0,-0.0082,0,-0.0081,-0.0072,-0.0072,0,0,0,-0.0082,-0.0091,-0.0087,-0.009,-0.0088,-0.0076,-0.008,-0.0076,-0.0076,-0.0081,-0.0082,-0.0082,-0.0081,-0.0072,-0.0072,-0.0112,-0.0112,0,0,-0.0083,-0.0088,-0.0088,-0.0087,-0.0088,-0.008,-0.0079,-0.0075,-0.0078,-0.0082,-0.0082,-0.0081,-0.0072,-0.0072,-0.0112,-0.0112,0,0,0,-0.0088,-0.0089,-0.0085,-0.0087,-0.0087,-0.008,-0.0079,-0.0078,-0.0076,-0.0082,-0.008,-0.0072,-0.0072,-0.0111,-0.0112,-0.0098,0,0,0,-0.0089,-0.0093,-0.0085,-0.0088,-0.0087,-0.0081,-0.0081,-0.0076,-0.0076,-0.0081,-0.0072,-0.0072,-0.0111,-0.0112,-0.0097,-0.0081,0,0,0,-0.009,-0.0093,-0.0092,-0.0089,-0.0086,-0.0081,-0.0079,-0.0076,-0.0075,-0.0072,-0.0072,-0.0111,-0.0112,-0.0097,-0.0081,-0.0016,0,0,0,-0.0095,-0.0116,-0.0093,-0.0118,-0.0086,-0.0099,-0.0079,-0.0084,-0.0083,-0.0072,-0.0111,-0.0112,-0.0096,-0.0081,-0.0017,-0.0079,0,0,0,-0.0129,-0.0121,-0.0137,-0.0116,-0.0142,-0.01,-0.0113,-0.0098,-0.01,-0.0111,-0.0112,-0.0097,-0.0081,-0.0016,-0.0134,0,0,0,0,-0.0153,-0.0165,-0.017,-0.0176,-0.0169,-0.0144,-0.0128,-0.0113,-0.011,-0.0105,-0.012,-0.0111,-0.0069,-0.0111,-0.0116,-0.0116,-0.0116,-0.0116,-0.0116,-0.0193,-0.0196,-0.0224,-0.0223,-0.0218,-0.0176,-0.0147,-0.0126,-0.0132,-0.013,-0.0116,-0.0082,-0.0132,-0.0142,-0.0142,-0.0142,-0.0142,-0.0141,-0.0141,-0.0249,-0.0271,-0.0258,-0.029,-0.0251,-0.0245,-0.0175,-0.0148,-0.0091,-0.0124,-0.0083,-0.0118,-0.0141,-0.0141,-0.0141,-0.0141,-0.0141,-0.0141,-0.0141,-0.0281,-0.0294,-0.0309,-0.0336,-0.0321,-0.0277,-0.0219,-0.0156,-0.0086,-0.0044,-0.0058,-0.0053,-0.003,-0.0016,-0.0015,-0.0015,-0.0015,-0.0015,-0.0014,-0.0309,-0.0325,-0.0366,-0.0384,-0.0391,-0.0357,-0.0241,-0.0163,-0.0064,-0.0041,-0.003,-0.0038,-0.0042,-0.0023,-0.0009,-0.001,-0.0011,-0.0011,-0.0012,-0.0364,-0.0369,-0.0426,-0.045,-0.0461,-0.0425,-0.032,-0.015,-0.005,0.0026,-0.0022,-0.0023,-0.0018,-0.0021,-0.0001,0.002,0.002,0.0019,0,-0.0395,-0.0404,-0.0476,-0.0513,-0.0514,-0.046,-0.0341,-0.0218,-0.0078,-0.0107,-0.004,-0.0102,-0.0101,-0.0105,-0.0109,-0.0092,0,0,0,-0.0431,-0.0444,-0.0496,-0.0534,-0.054,-0.0411,-0.0306,-0.0251,-0.0132,-0.0022,0.0002,0.0006,-0.0023,0.0006,0.0013,0.0008,0.0041,0,0]}]]